GW3507 Weather Reports


time (UTC)temp
C
wind
direction
speed
KPH
gust
KPH
rain 1hr
cm
rain 24hr
cm
rain mn
cm
humidity
%
barometer
mb
20260510231147 14 292 4.8 17.7 0.00 0.00 0.00 30 1017.5
20260510230649 14 288 6.4 16.1 0.00 0.00 0.00 30 1017.5
20260510230134 14 302 4.8 16.1 0.00 0.00 0.00 32 1017.6
20260510225705 13 297 6.4 16.1 0.00 0.00 0.00 31 1017.5
20260510225141 14 257 3.2 16.1 0.00 0.00 0.00 32 1017.5
20260510224645 14 293 4.8 16.1 0.00 0.00 0.00 31 1017.5
20260510224141 14 262 6.4 25.7 0.00 0.00 0.00 32 1017.6
20260510223642 13 309 8.0 16.1 0.00 0.00 0.00 32 1017.5
20260510223146 13 232 4.8 12.9 0.00 0.00 0.00 32 1017.4
20260510222648 14 295 3.2 12.9 0.00 0.00 0.00 34 1017.4
20260510222148 13 271 4.8 12.9 0.00 0.00 0.00 32 1017.4
20260510221633 13 266 3.2 12.9 0.00 0.00 0.00 32 1017.4
20260510221133 13 249 4.8 16.1 0.00 0.00 0.00 31 1017.4
20260510220702 13 295 6.4 22.5 0.00 0.00 0.00 30 1017.4
20260510220206 14 267 6.4 22.5 0.00 0.00 0.00 32 1017.3
20260510215526 14 275 6.4 25.7 0.00 0.00 0.00 31 1017.2
20260510215142 14 285 11.3 25.7 0.00 0.00 0.00 30 1017.1
20260510214646 15 276 4.8 12.9 0.00 0.00 0.00 31 1017.1
20260510214147 15 281 6.4 14.5 0.00 0.00 0.00 30 1017.0
20260510213649 15 287 8.0 16.1 0.00 0.00 0.00 30 1016.9
20260510213134 15 285 9.7 17.7 0.00 0.00 0.00 29 1016.9
20260510212637 15 282 9.7 17.7 0.00 0.00 0.00 29 1016.9
20260510212157 15 295 6.4 12.9 0.00 0.00 0.00 30 1016.7
20260510211631 15 320 3.2 14.5 0.00 0.00 0.00 28 1016.7
20260510211133 15 195 6.4 14.5 0.00 0.00 0.00 31 1016.7
20260510210636 15 300 8.0 17.7 0.00 0.00 0.00 28 1016.7
20260510210139 15 292 3.2 20.9 0.00 0.00 0.00 31 1016.6
20260510205645 14 276 9.7 20.9 0.00 0.00 0.00 30 1016.6
20260510205211 14 293 6.4 16.1 0.00 0.00 0.00 30 1016.6
20260510204634 14 334 6.4 17.7 0.00 0.00 0.00 31 1016.6
20260510204134 15 272 6.4 19.3 0.00 0.00 0.00 30 1016.7
20260510203637 15 260 6.4 19.3 0.00 0.00 0.00 27 1016.7
20260510203142 14 297 1.6 12.9 0.00 0.00 0.00 30 1016.8
20260510202645 14 257 3.2 12.9 0.00 0.00 0.00 28 1016.9
20260510202144 14 304 3.2 17.7 0.00 0.00 0.00 31 1017.0
20260510201649 14 347 6.4 19.3 0.00 0.00 0.00 30 1016.9
20260510201148 14 285 6.4 19.3 0.00 0.00 0.00 29 1016.9
20260510200650 14 26 4.8 20.9 0.00 0.00 0.00 29 1016.9
20260510200136 14 268 8.0 22.5 0.00 0.00 0.00 30 1017.1
20260510195640 14 288 6.4 22.5 0.00 0.00 0.00 28 1017.0
20260510195137 15 294 6.4 14.5 0.00 0.00 0.00 26 1017.1
20260510194706 15 84 3.2 20.9 0.00 0.00 0.00 29 1017.2
20260510194145 14 133 4.8 27.4 0.00 0.00 0.00 28 1017.1
20260510193649 13 238 3.2 17.7 0.00 0.00 0.00 29 1017.1
20260510193149 13 266 6.4 20.9 0.00 0.00 0.00 29 1017.2
20260510192632 14 230 9.7 20.9 0.00 0.00 0.00 27 1017.2
20260510192149 14 310 1.6 8.0 0.00 0.00 0.00 27 1017.2
20260510191653 15 71 3.2 17.7 0.00 0.00 0.00 26 1017.2
20260510191150 15 88 1.6 17.7 0.00 0.00 0.00 29 1017.2
20260510190634 14 331 4.8 14.5 0.00 0.00 0.00 29 1017.3
20260510190138 15 279 8.0 14.5 0.00 0.00 0.00 28 1017.3
20260510185645 14 322 1.6 8.0 0.00 0.00 0.00 29 1017.1
20260510185143 14 290 3.2 14.5 0.00 0.38 0.00 26 1017.2
20260510184649 15 271 3.2 14.5 0.00 0.38 0.00 27 1017.3
20260510184150 14 281 3.2 16.1 0.00 0.38 0.00 29 1017.1
20260510183633 13 347 3.2 16.1 0.00 0.38 0.00 29 1017.0
20260510183154 13 276 4.8 16.1 0.00 0.38 0.00 27 1017.1
20260510182657 15 268 6.4 14.5 0.00 0.38 0.00 27 1017.1
20260510182136 15 314 1.6 16.1 0.00 0.38 0.00 29 1017.0
20260510181639 14 44 3.2 19.3 0.00 0.38 0.00 31 1017.0
20260510181139 13 283 8.0 19.3 0.00 0.38 0.00 28 1017.0
20260510180642 13 257 4.8 11.3 0.00 0.38 0.00 27 1016.9
20260510180148 13 312 3.2 16.1 0.00 0.38 0.00 29 1016.9
20260510175652 14 319 6.4 20.9 0.00 0.38 0.00 27 1017.0
20260510175149 15 297 9.7 17.7 0.00 0.38 0.00 28 1016.9
20260510174634 15 94 1.6 11.3 0.00 0.38 0.00 30 1016.8
20260510174134 14 115 1.6 11.3 0.00 0.38 0.00 28 1016.9
20260510173638 13 290 1.6 14.5 0.00 0.38 0.00 31 1016.9
20260510173141 13 329 3.2 14.5 0.00 0.38 0.00 29 1016.9
20260510172643 13 283 4.8 14.5 0.00 0.38 0.00 28 1016.8
20260510172142 13 49 3.2 12.9 0.00 0.38 0.00 30 1016.8
20260510171647 13 323 4.8 17.7 0.00 0.38 0.00 28 1017.0
20260510171212 12 268 4.8 17.7 0.00 0.38 0.00 30 1016.9
20260510170652 13 311 3.2 19.3 0.00 0.38 0.00 29 1017.0
20260510170153 12 295 6.4 19.3 0.00 0.38 0.00 29 1017.0
20260510165655 13 278 3.2 22.5 0.00 0.38 0.00 31 1017.1
20260510165154 13 271 8.0 22.5 0.00 0.38 0.00 30 1017.2
20260510164636 13 305 1.6 16.1 0.00 0.38 0.00 31 1017.0
20260510164134 12 206 3.2 17.7 0.00 0.38 0.00 31 1017.0
20260510163637 12 307 6.4 20.9 0.00 0.38 0.00 32 1017.0
20260510163159 12 285 8.0 20.9 0.00 0.38 0.00 31 1017.0
20260510162642 12 283 9.7 19.3 0.00 0.38 0.00 29 1017.0
20260510162139 13 266 6.4 16.1 0.00 0.38 0.00 28 1016.9
20260510161708 13 309 1.6 12.9 0.00 0.38 0.00 30 1016.9
20260510161145 13 252 3.2 12.9 0.00 0.38 0.00 31 1016.8
20260510160647 13 234 1.6 11.3 0.00 0.38 0.00 29 1016.8
20260510160131 13 110 4.8 11.3 0.00 0.38 0.00 32 1016.8
20260510155635 12 111 3.2 9.7 0.00 0.38 0.00 33 1016.8
20260510155134 12 84 1.6 11.3 0.00 0.38 0.00 33 1016.8
20260510154638 12 17 4.8 14.5 0.00 0.38 0.00 31 1016.7
20260510154138 12 285 4.8 16.1 0.00 0.38 0.00 31 1016.7
20260510153639 12 331 6.4 16.1 0.00 0.38 0.00 33 1016.6
20260510153141 12 251 4.8 17.7 0.00 0.38 0.00 33 1016.5
20260510152642 12 278 4.8 17.7 0.00 0.38 0.00 35 1016.5
20260510152140 12 255 4.8 17.7 0.00 0.38 0.00 35 1016.4
20260510151643 11 342 3.2 16.1 0.00 0.38 0.00 35 1016.3
20260510151207 11 316 4.8 17.7 0.00 0.38 0.00 36 1016.3
20260510150650 11 283 9.7 17.7 0.00 0.38 0.00 37 1016.4
20260510150148 11 283 1.6 9.7 0.00 0.38 0.00 39 1016.3
20260510145631 11 264 3.2 12.9 0.00 0.38 0.00 39 1016.3
20260510145150 11 326 1.6 12.9 0.00 0.38 0.00 40 1016.3
20260510144632 11 297 6.4 12.9 0.00 0.38 0.00 38 1016.2
20260510144146 10 274 3.2 14.5 0.00 0.38 0.00 38 1016.0
20260510143648 10 286 6.4 14.5 0.00 0.38 0.00 38 1015.9
20260510143132 10 354 3.2 11.3 0.00 0.38 0.00 39 1016.0
20260510142633 10 263 4.8 11.3 0.00 0.38 0.00 40 1015.9
20260510142134 10 253 6.4 9.7 0.00 0.38 0.00 41 1015.9
20260510141636 10 286 3.2 6.4 0.00 0.38 0.00 41 1015.9
20260510141135 10 59 0.0 9.7 0.00 0.38 0.00 43 1015.9
20260510140637 10 292 1.6 6.4 0.00 0.38 0.00 43 1015.8
20260510140136 10 264 0.0 4.8 0.00 0.38 0.00 45 1015.8
20260510135639 10 236 0.0 14.5 0.00 0.38 0.00 45 1015.9
20260510135139 9 263 4.8 14.5 0.00 0.38 0.00 44 1015.8
20260510134642 9 302 3.2 11.3 0.00 0.38 0.00 46 1015.8
20260510134205 8 260 3.2 6.4 0.00 0.38 0.00 46 1015.8
20260510133647 8 230 0.0 6.4 0.00 0.38 0.00 48 1015.7
20260510133131 8 288 3.2 9.7 0.00 0.38 0.00 47 1015.8
20260510132635 8 270 1.6 9.7 0.00 0.38 0.00 48 1015.6
20260510132134 8 245 4.8 9.7 0.00 0.38 0.00 48 1015.7
20260510131703 8 268 3.2 6.4 0.00 0.38 0.00 50 1015.6
20260510131142 7 295 1.6 4.8 0.00 0.38 0.00 50 1015.5
20260510130647 7 358 1.6 4.8 0.00 0.38 0.00 50 1015.5
20260510130209 7 101 0.0 4.8 0.00 0.38 0.00 51 1015.5
20260510125651 7 302 1.6 6.4 0.00 0.38 0.00 51 1015.4
20260510125151 7 316 1.6 6.4 0.00 0.38 0.00 51 1015.3
20260510124633 7 286 0.0 6.4 0.00 0.38 0.00 52 1015.3
20260510124131 7 345 1.6 4.8 0.00 0.38 0.00 52 1015.3
20260510123702 7 344 1.6 6.4 0.00 0.38 0.00 52 1015.2
20260510123136 7 263 1.6 6.4 0.00 0.38 0.00 55 1015.2
20260510122638 6 279 0.0 4.8 0.00 0.38 0.00 58 1015.2
20260510122136 6 280 0.0 6.4 0.00 0.38 0.00 56 1015.1
20260510121639 6 316 3.2 6.4 0.00 0.38 0.00 57 1015.1
20260510121139 6 312 0.0 6.4 0.00 0.38 0.00 61 1015.0
20260510120641 6 219 0.0 3.2 0.00 0.38 0.00 60 1014.9
20260510120133 6 248 0.0 4.8 0.00 0.38 0.00 61 1014.9
20260510115638 6 294 0.0 3.2 0.00 0.38 0.00 63 1014.8
20260510115136 5 75 0.0 6.4 0.00 0.38 0.00 63 1014.7
20260510114639 5 135 0.0 4.8 0.00 0.38 0.00 64 1014.6
20260510114137 5 32 0.0 8.0 0.00 0.38 0.00 65 1014.5
20260510113701 5 295 0.0 4.8 0.00 0.38 0.00 67 1014.5
20260510113143 5 360 0.0 4.8 0.00 0.38 0.00 68 1014.4
20260510112646 4 248 0.0 4.8 0.00 0.38 0.00 71 1014.4
20260510112144 4 248 0.0 1.6 0.00 0.38 0.00 74 1014.4
20260510111649 3 303 0.0 0.0 0.00 0.38 0.00 73 1014.3
20260510111148 3 306 0.0 0.0 0.00 0.38 0.00 73 1014.2
20260510110633 3 307 0.0 0.0 0.00 0.38 0.00 74 1014.1
20260510110136 3 307 0.0 0.0 0.00 0.38 0.00 74 1014.1
20260510105638 3 303 0.0 0.0 0.00 0.38 0.00 74 1014.1
20260510105137 3 304 0.0 0.0 0.00 0.38 0.00 74 1014.0
20260510104641 3 303 0.0 0.0 0.00 0.38 0.00 75 1013.9
20260510104139 3 329 0.0 0.0 0.00 0.38 0.00 76 1013.9
20260510103708 3 329 0.0 0.0 0.00 0.38 0.00 77 1013.8
20260510103149 3 329 0.0 0.0 0.00 0.38 0.00 77 1013.7
20260510102652 3 337 0.0 0.0 0.00 0.38 0.00 78 1013.7
20260510102151 3 337 0.0 0.0 0.00 0.38 0.00 79 1013.7
20260510101633 3 338 0.0 0.0 0.00 0.38 0.00 79 1013.7
20260510101132 3 338 0.0 0.0 0.00 0.38 0.00 79 1013.4
20260510100634 3 338 0.0 0.0 0.00 0.38 0.00 78 1013.5
20260510100153 3 338 0.0 0.0 0.00 0.38 0.00 78 1013.4
20260510095635 3 338 0.0 0.0 0.00 0.38 0.00 76 1013.3
20260510095134 4 338 0.0 0.0 0.00 0.38 0.00 75 1013.3
20260510094638 4 338 0.0 0.0 0.00 0.38 0.00 73 1013.2
20260510094157 4 338 0.0 0.0 0.00 0.38 0.00 73 1013.2
20260510093701 4 338 0.0 0.0 0.00 0.38 0.00 70 1013.2
20260510093144 5 338 0.0 0.0 0.00 0.38 0.00 70 1013.1
20260510092646 5 338 0.0 0.0 0.00 0.38 0.00 70 1013.0
20260510092145 5 338 0.0 0.0 0.00 0.38 0.00 69 1013.0
20260510091648 5 338 0.0 0.0 0.00 0.38 0.00 70 1013.0
20260510091148 5 338 0.0 0.0 0.00 0.38 0.00 69 1013.0
20260510090651 5 338 0.0 0.0 0.00 0.38 0.00 67 1012.9
20260510090133 6 288 0.0 0.0 0.00 0.38 0.00 65 1012.8
20260510085635 6 288 0.0 3.2 0.00 0.38 0.00 65 1012.7
20260510085132 6 83 0.0 3.2 0.00 0.38 0.00 66 1012.5
20260510084635 6 28 0.0 1.6 0.00 0.38 0.00 65 1012.5
20260510084133 6 27 0.0 1.6 0.00 0.38 0.00 65 1012.4
20260510083636 6 268 0.0 3.2 0.00 0.38 0.00 64 1012.3
20260510083155 6 336 0.0 4.8 0.00 0.38 0.00 65 1012.1
20260510082636 6 122 0.0 8.0 0.00 0.38 0.00 64 1011.9
20260510082135 6 346 1.6 8.0 0.00 0.38 0.00 63 1011.8
20260510081639 6 312 0.0 1.6 0.00 0.38 0.00 62 1011.7
20260510081137 7 345 0.0 1.6 0.00 0.38 0.00 61 1011.6
20260510080641 7 345 0.0 8.0 0.00 0.38 0.00 61 1011.5
20260510080143 7 26 0.0 6.4 0.00 0.38 0.00 62 1011.4
20260510075645 7 65 0.0 3.2 0.00 0.38 0.00 60 1011.2
20260510075209 7 283 0.0 3.2 0.00 0.38 0.00 59 1011.1
20260510074650 7 68 0.0 4.8 0.00 0.38 0.00 60 1010.9
20260510074149 7 265 0.0 4.8 0.00 0.38 0.00 58 1010.8
20260510073650 7 71 0.0 4.8 0.00 0.38 0.00 58 1010.7
20260510073132 7 9 0.0 4.8 0.00 0.38 0.00 58 1010.6
20260510072634 7 319 1.6 4.8 0.00 0.38 0.00 59 1010.5
20260510072153 8 340 0.0 4.8 0.00 0.38 0.00 62 1010.4
20260510071635 8 142 0.0 4.8 0.00 0.38 0.00 63 1010.3
20260510071135 8 85 1.6 4.8 0.00 0.38 0.00 63 1010.3
20260510070636 8 336 0.0 1.6 0.00 0.38 0.00 61 1010.3
20260510070156 8 50 0.0 1.6 0.00 0.38 0.00 61 1010.2
20260510065634 8 72 0.0 1.6 0.00 0.38 0.00 62 1010.2
20260510065154 8 330 0.0 1.6 0.00 0.38 0.00 62 1010.2
20260510064637 8 9 0.0 1.6 0.00 0.38 0.00 62 1010.2
20260510064140 8 53 0.0 1.6 0.00 0.38 0.00 62 1010.1
20260510063707 8 91 0.0 1.6 0.00 0.38 0.00 62 1010.1
20260510063151 8 91 0.0 4.8 0.00 0.38 0.00 62 1010.1
20260510062653 8 54 0.0 4.8 0.00 0.38 0.00 65 1010.0
20260510062148 8 115 0.0 1.6 0.00 0.38 0.00 66 1010.0
20260510061634 8 115 0.0 1.6 0.00 0.38 0.00 64 1009.9
20260510061134 8 115 0.0 0.0 0.00 0.38 0.00 66 1009.8
20260510060636 8 52 0.0 0.0 0.00 0.38 0.00 66 1009.8
20260510060155 8 44 0.0 0.0 0.00 0.38 0.00 65 1009.8
20260510055658 8 44 0.0 0.0 0.00 0.38 0.00 67 1009.8
20260510055155 8 44 0.0 0.0 0.00 0.38 0.00 65 1009.7
20260510054636 8 44 0.0 0.0 0.00 0.38 0.00 65 1009.7
20260510054136 9 44 0.0 0.0 0.00 0.38 0.00 66 1009.5
20260510053639 9 44 0.0 0.0 0.00 0.38 0.00 67 1009.3
20260510053143 9 44 0.0 0.0 0.00 0.38 0.00 66 1009.2
20260510052712 9 44 0.0 0.0 0.00 0.38 0.00 65 1009.2
20260510052147 9 44 0.0 0.0 0.00 0.38 0.00 64 1009.0
20260510051650 10 44 0.0 0.0 0.00 0.38 0.00 63 1008.9
20260510051131 10 44 0.0 0.0 0.00 0.38 0.00 62 1008.9
20260510050634 10 44 0.0 0.0 0.00 0.38 0.00 61 1008.8
20260510050153 10 44 0.0 1.6 0.00 0.38 0.00 60 1008.6
20260510045652 10 44 0.0 1.6 0.00 0.38 0.00 60 1008.5
20260510045148 10 342 0.0 3.2 0.00 0.38 0.00 59 1008.5
20260510044632 11 342 0.0 3.2 0.00 0.38 0.00 60 1008.4
20260510044149 11 316 0.0 1.6 0.00 0.38 0.00 59 1008.3
20260510043653 11 304 0.0 1.6 0.00 0.38 0.00 59 1008.2
20260510043149 11 307 0.0 0.0 0.00 0.38 0.00 60 1008.1
20260510042653 11 289 0.0 1.6 0.00 0.38 0.00 59 1007.9
20260510042148 11 285 0.0 1.6 0.00 0.38 0.00 59 1007.8
20260510041650 11 275 0.0 1.6 0.00 0.38 0.00 57 1007.8
20260510041149 11 275 0.0 1.6 0.00 0.38 0.00 56 1007.8
20260510040632 11 235 0.0 0.0 0.00 0.38 0.00 56 1007.8
20260510040150 12 235 0.0 1.6 0.00 0.38 0.00 55 1007.8
20260510035633 12 225 0.0 8.0 0.00 0.38 0.00 54 1007.8
20260510035133 12 6 1.6 8.0 0.00 0.38 0.38 54 1007.9
20260510034636 12 240 0.0 8.0 0.00 0.38 0.38 53 1007.8
20260510034137 12 311 0.0 3.2 0.00 0.38 0.38 53 1007.7
20260510033641 12 315 0.0 4.8 0.00 0.38 0.38 52 1007.5
20260510033140 12 331 0.0 4.8 0.00 0.38 0.38 52 1007.4
20260510032643 13 11 1.6 6.4 0.00 0.38 0.38 51 1007.4
20260510032142 13 310 0.0 9.7 0.00 0.38 0.38 52 1007.4
20260510031643 13 319 1.6 9.7 0.00 0.38 0.38 50 1007.3
20260510031141 13 314 1.6 12.9 0.00 0.38 0.38 50 1007.1
20260510030710 13 104 3.2 12.9 0.00 0.38 0.38 50 1007.1
20260510030150 13 252 0.0 6.4 0.00 0.38 0.38 49 1007.1
20260510025633 13 121 1.6 9.7 0.00 0.38 0.38 48 1007.0
20260510025133 13 338 0.0 9.7 0.00 0.38 0.38 48 1006.9
20260510024635 13 25 1.6 11.3 0.00 0.38 0.38 46 1006.8
20260510024134 14 250 1.6 11.3 0.00 0.38 0.38 46 1006.8
20260510023638 14 308 1.6 11.3 0.00 0.38 0.38 48 1006.7
20260510023138 14 271 1.6 11.3 0.00 0.38 0.38 46 1006.6
20260510022708 15 65 3.2 11.3 0.00 0.38 0.38 45 1006.5
20260510022146 15 314 1.6 17.7 0.00 0.38 0.38 44 1006.5
20260510021650 15 27 3.2 17.7 0.00 0.38 0.38 43 1006.2
20260510021146 15 323 4.8 12.9 0.00 0.38 0.38 44 1006.1
20260510020648 16 344 3.2 14.5 0.00 0.38 0.38 45 1005.9
20260510020131 16 203 3.2 14.5 0.00 0.38 0.38 44 1005.6
20260510015634 16 310 3.2 12.9 0.00 0.38 0.38 45 1005.4
20260510015133 16 13 3.2 16.1 0.00 0.38 0.38 45 1005.3
20260510014636 16 173 4.8 12.9 0.00 0.38 0.38 48 1005.1
20260510014136 16 34 1.6 11.3 0.00 0.38 0.38 48 1004.9
20260510013639 16 323 1.6 6.4 0.00 0.38 0.38 49 1004.8
20260510013138 16 302 1.6 8.0 0.00 0.38 0.38 49 1004.7
20260510012640 16 288 3.2 12.9 0.00 0.38 0.38 49 1004.5
20260510012205 16 255 3.2 12.9 0.00 0.38 0.38 49 1004.3
20260510011647 16 287 0.0 3.2 0.00 0.38 0.38 50 1004.1
20260510011143 16 306 0.0 3.2 0.00 0.38 0.38 50 1003.9
20260510010647 16 285 0.0 3.2 0.00 0.38 0.38 48 1003.9
20260510010131 16 256 0.0 3.2 0.00 0.38 0.38 48 1003.8
20260510005634 16 256 0.0 4.8 0.00 0.38 0.38 46 1003.7
20260510005136 17 304 1.6 6.4 0.00 0.38 0.38 46 1003.6
20260510004638 17 274 1.6 3.2 0.00 0.38 0.38 46 1003.5
20260510004139 17 248 0.0 3.2 0.00 0.38 0.38 44 1003.4
20260510003649 17 250 0.0 4.8 0.00 0.38 0.38 44 1003.3
20260510003149 17 244 1.6 9.7 0.00 0.38 0.38 43 1003.3
20260510002631 17 269 3.2 12.9 0.00 0.38 0.38 42 1003.2
20260510002150 18 314 3.2 12.9 0.00 0.38 0.38 42 1003.1
20260510001632 18 262 8.0 12.9 0.00 0.38 0.38 41 1003.0
20260510001151 18 316 6.4 12.9 0.00 0.38 0.38 40 1002.8
20260510000653 18 257 4.8 14.5 0.00 0.38 0.38 40 1002.8
20260510000146 18 240 6.4 14.5 0.00 0.38 0.38 39 1002.8
20260509235650 18 274 4.8 17.7 0.00 0.38 0.38 39 1002.7
20260509235147 19 252 8.0 17.7 0.00 0.38 0.38 39 1002.8
20260509234650 19 283 4.8 16.1 0.00 0.38 0.38 38 1002.6
20260509234146 19 236 4.8 16.1 0.00 0.38 0.38 38 1002.7
20260509233650 19 314 4.8 19.3 0.00 0.38 0.38 38 1002.7
20260509233134 19 284 4.8 19.3 0.00 0.38 0.38 39 1002.6
20260509232642 19 270 6.4 17.7 0.00 0.38 0.38 37 1002.5
20260509232133 19 297 6.4 20.9 0.00 0.38 0.38 37 1002.5
20260509231635 19 273 6.4 27.4 0.00 0.38 0.38 38 1002.7